Regional Weather Roundup
Issued by NWS Binghamton, NY

Home | Current Version | Previous Version | Text Only | Print | Product List | Glossary On
Versions: 1 2 3 4 5 6 7 8 9 10 11 12 13 14 15 16 17 18 19 20 21 22 23 24 25 26 27 28 29 30 31 32 33 34 35 36 37 38 39 40 41 42 43 44 45 46 47 48 49 50
000
ASUS41 KBGM 280810
RWRBGM
RWRBGM
BINGHAMTON REGIONAL WEATHER ROUNDUP
NATIONAL WEATHER SERVICE BINGHAMTON NY
400 AM EDT MON JUL 28 2014

Note: "fair" indicates few or no clouds below 12,000 feet with no
significant weather and/or obstructions to visibility.

* = Station(s) that does not report precipitation, such as rain,
snow, etc, also no thunder or fog.

!NYZ009-015>018-022>025-036-037-044>046-055>057-062-280900
...CENTRAL NEW YORK...

CITY           SKY/WX    TMP DP  RH WIND       PRES   REMARKS
BINGHAMTON     CLOUDY    64  63  96 CALM      29.59F
CORTLAND       CLOUDY    64  64 100 CALM      29.59F
DANSVILLE      LGT RAIN  64  63  96 N3        29.58R
ELMIRA         CLOUDY    66  65  96 NW3       29.57S FOG
ITHACA         CLOUDY    65  64  96 E3        29.58F
HAMILTON       CLOUDY    64  63  94 CALM      29.60F
MONTICELLO     CLOUDY    66  57  72 SE6       29.60F
NORWICH        CLOUDY    63  63 100 CALM      29.60F
PENN YAN       CLOUDY    66  64  93 CALM      29.57F
ROME           RAIN      65  63  93 E9        29.60F
SIDNEY         RAIN      64  64 100 CALM      29.59S
SYRACUSE       LGT RAIN  67  65  93 NE8       29.56F FOG
$$

!PAZ038>040-043-044-047-048-072-280900
...NORTHEAST PENNSYLVANIA...

CITY           SKY/WX    TMP DP  RH WIND       PRES   REMARKS
HAZLETON       CLOUDY    64  63  94 CALM      29.64R
SCRANTON       CLOUDY    66  61  84 CALM      29.57F
TOWANDA*       PTCLDY    64  64 100 CALM      29.57F
$$
&&
KEY
WCI = WIND CHILL INDEX
VSB = VISIBILITY
HX  = HEAT INDEX
$$


USA.gov is the U.S. government's official web portal to all federal, state and local government web resources and services.